Location: Boca do Mato
(22.9085°S, 43.2930°W)
Time: 22:14:26
(UTC+00:00)

Cosmos 2219 - Pass Details

Date: 14 July 2020
Orbit: 835 x 858 km, 71.1° (Epoch: 10 August)

Event Time Altitude Azimuth Distance (km) Brightness Sun altitude
Exits shadow 07:30:45 68° 178° (S) 924 3.2 -27.7°
Maximum altitude 07:31:31 82° 108° (ESE) 870 3.2 -27.6°
Drops below altitude 10° 07:37:12 10° 20° (NNE) 2,471 6.0 -26.3°
Sets 07:39:38 0° 19° (NNE) 3,396 6.8 -25.7°
